TESS (43435 NORAD) Tracking and Keplerian Element Data

This shows tracking and keplerian element data for the satellite.

Feedback or suggestion? Click here.




ElementValue
Catalog43435
NameTESS
Epoch Orbit1
Epoch Day124.35259418
Epoch Year2018
RAAN36.7562
Inclination28.9141
Eccentricity0.9597568
Argument of Perigee230.9244
Mean Anonmoly354.513
Mean Motion0.1093485
Decay Rate-0.00013193
L11 43435U 18038A 18124.35259418 -.00013193 00000-0 00000+0 0 9999
L22 43435 28.9141 36.7562 9597568 230.9244 354.5130 0.10934850 10

Live tracking and technical data element details for TESS (NORAD 43435). TESS can be tracked NOW for your location showing map with azimuth and elevation plus other details from your city location.

Track the satellite on the map from your city or location and see movement details for azimuth, elevation, latitude, longitude, range, height, and movement on the map or in text.







IsCatalogInMostPopularTable: catalog: 43435, numindb: 57
Update: records affected: 1



GetName: 43435 TESS

Hit Count: updated at: Sun, 15 Jul 2018 23:02:55 GMT